{"data":{"norad_id":55777,"epoch":"2026-05-25T02:43:40.648224Z","epoch_age_seconds":66007,"freshness":"FRESH","line1":"1 55777U 23028AN  26145.11366491  .00000089  00000+0  15227-4 0  9992","line2":"2 55777  70.0000  31.6484 0002633 271.2645  88.8212 14.98333719177986","mean_motion":14.98333719,"eccentricity":0.0002633,"inclination_deg":70,"raan_deg":31.6484,"arg_perigee_deg":271.2645,"mean_anomaly_deg":88.8212,"bstar":1.5227e-5,"rev_number":17798,"period_min":96.106760579417,"perigee_km":570.21440750743,"apogee_km":573.87437302754,"semimajor_km":6950.1813902675,"source":"CELESTRAK","updated_at":"2026-05-25T13:38:17.884974Z"}}